Wind_Speed
18 17 17 16 15 15 15 15 15 15 15 15 15 15 15 15 16 16 17 18 19 20 21 22 23 24 25 26 27 28 29 29 30 31 32 32 32 33 32 32 32 32
19 17 17 16 15 15 15 15 15 16 16 16 16 16 16 17 17 18 18 19 19 20 21 22 24 25 26 27 28 29 30 31 32 32 33 34 34 35 35 35 34 34
18 17 16 16 15 16 16 16 16 16 16 16 17 17 18 18 18 18 19 19 20 21 23 24 26 27 29 30 31 31 32 33 33 34 34 35 35 35 36 36 35 35
17 17 16 16 16 16 17 17 17 17 17 17 17 18 18 19 19 20 21 22 23 24 26 27 29 30 32 32 33 34 34 35 35 35 36 36 36 35 35 35 35 35
17 16 16 16 16 17 17 18 18 18 18 18 18 19 19 20 21 22 23 24 26 27 28 30 31 32 33 33 33 33 33 34 34 34 35 35 36 36 36 36 36 37
16 16 16 17 17 18 18 18 19 18 18 18 19 20 21 22 22 24 25 26 28 29 29 30 30 30 30 30 31 31 31 32 32 33 33 34 35 36 36 37 38 38
15 15 16 17 17 18 18 19 19 18 19 19 20 22 22 23 24 25 26 27 28 28 28 28 28 28 28 28 29 29 29 30 30 31 32 33 34 34 36 37 38 39
15 15 15 16 17 18 18 18 18 19 20 21 22 23 24 24 25 25 26 26 26 26 26 26 26 26 27 27 27 28 28 29 29 30 30 31 32 33 33 35 36 37
13 14 15 15 16 17 17 18 19 20 21 22 22 23 23 24 24 24 24 24 24 24 24 25 25 26 26 26 26 27 27 27 28 28 29 29 30 31 31 32 34 35
12 13 14 15 15 16 17 18 19 20 20 21 21 21 22 22 22 22 22 22 23 23 24 24 25 24 24 24 24 24 24 24 25 25 26 27 28 28 29 30 31 32
12 13 13 14 15 16 17 18 18 18 19 19 19 20 20 20 20 20 21 21 22 22 22 21 21 21 21 21 22 23 23 24 24 25 26 27 27 28 29 29 30 31
12 13 13 14 15 16 16 16 16 17 17 17 17 17 17 18 19 19 20 20 19 18 18 18 19 20 21 22 23 24 24 25 26 27 27 28 29 29 30 31 31 32
12 12 13 13 14 14 14 14 14 15 15 15 15 16 16 17 17 17 17 16 16 17 18 19 20 21 23 24 24 25 26 27 27 28 28 29 30 30 31 32 32 33
11 12 12 12 12 12 12 13 12 12 13 13 14 15 15 15 14 14 15 15 17 18 19 21 22 23 23 24 26 27 27 28 28 29 29 30 31 31 32 32 33 34
10 10 10 10 10 10 10 10 10 11 11 12 12 12 12 12 12 13 15 16 18 19 21 22 23 24 25 26 27 28 29 30 30 31 31 32 32 33 33 34 34 35
8 8 8 8 8 8 8 8 9 10 10 10 9 9 9 10 12 14 16 17 19 20 21 22 23 25 26 27 28 29 30 31 32 33 34 34 35 35 35 36 36 37
6 6 6 6 6 6 6 7 8 7 7 7 7 8 9 11 13 14 16 17 19 20 22 23 24 25 26 28 29 31 32 33 34 34 35 36 37 37 37 38 38 38
5 5 4 4 4 5 6 6 5 4 5 6 7 9 10 11 13 15 16 18 19 21 22 23 25 26 27 29 30 31 33 34 35 36 37 37 38 39 40 40 40 40
3 3 2 3 3 4 4 2 2 4 5 6 8 9 11 12 14 15 17 18 20 21 23 24 25 27 28 29 31 32 33 34 36 37 39 40 40 41 41 42 42 42
2 1 1 2 2 2 1 2 3 4 6 7 9 10 11 13 15 16 18 19 21 22 23 25 26 27 28 30 31 32 34 35 37 38 39 40 41 42 42 42 42 43
0 0 1 1 1 1 1 2 4 5 6 8 9 11 12 14 16 17 19 20 21 23 24 25 26 27 28 29 31 32 34 36 37 38 39 40 41 41 42 42 42 42
2 2 2 2 2 2 2 3 5 6 7 8 10 12 13 15 16 18 19 21 22 23 24 25 26 27 28 29 31 32 34 36 37 38 38 39 39 39 39 40 40 40
3 3 3 3 2 1 3 4 5 7 8 9 11 13 14 15 17 18 20 21 22 23 24 25 26 28 29 30 31 33 34 36 37 38 38 38 38 37 37 37 37 38
4 4 4 2 1 2 3 5 6 7 9 10 12 14 15 16 17 19 20 21 22 23 25 26 27 28 29 31 32 34 35 36 37 38 38 37 37 36 36 35 35 36
5 5 3 1 1 3 4 5 6 8 10 12 13 14 16 17 18 20 21 21 22 24 25 26 27 28 30 31 33 35 36 37 38 38 38 38 38 36 35 34 34 35
6 4 2 0 2 3 4 6 8 10 11 12 14 15 16 18 19 20 21 22 23 24 25 26 27 29 30 32 34 35 37 38 38 39 39 39 39 37 36 35 34 35
Wind_Direction
261 257 250 250 255 261 266 270 275 277 278 279 280 284 288 292 295 296 297 299 300 301 302 302 302 301 301 299 298 297 296 296 295 294 294 294 295 296 296 296 296 295
256 251 247 249 255 261 265 269 273 275 276 278 280 284 287 290 292 293 294 296 298 300 301 302 302 301 299 298 297 296 296 295 294 294 293 293 293 293 294 294 294 294
254 249 246 250 255 261 265 269 274 275 276 278 280 284 286 288 290 291 294 296 297 299 300 300 300 299 299 298 298 297 296 296 295 294 294 293 293 293 293 294 293 293
252 248 248 252 258 262 266 271 275 277 277 278 280 283 285 288 291 293 296 297 298 299 299 299 299 298 298 298 298 297 297 297 296 296 295 295 295 295 294 294 294 293
248 248 252 258 262 266 270 275 277 278 279 280 283 285 287 291 294 296 297 297 297 298 298 298 298 299 299 299 299 299 298 298 297 297 297 296 296 296 295 295 295 294
247 250 257 262 266 271 275 279 281 281 282 285 287 289 291 294 297 297 297 297 297 298 299 300 301 302 302 302 302 302 301 300 299 298 298 297 297 296 296 296 295 294
247 253 259 265 271 276 281 283 285 286 287 288 290 293 295 297 299 299 299 300 301 302 304 305 305 305 305 305 305 305 304 303 301 300 299 298 297 296 296 295 294 294
251 257 264 271 277 282 286 288 290 291 292 292 294 296 299 300 301 301 303 305 306 308 309 309 310 310 309 309 308 307 306 304 303 302 300 299 298 296 295 294 293 293
258 265 272 279 283 288 291 292 294 293 294 295 297 299 301 302 304 306 309 311 313 314 315 315 315 314 313 312 311 310 310 309 309 307 306 305 303 301 299 297 296 294
268 274 279 285 288 291 293 293 294 294 295 298 300 303 305 308 310 312 315 317 319 319 319 319 320 320 321 322 323 323 324 323 322 321 319 317 315 313 311 308 305 302
275 280 285 288 291 292 292 293 294 296 299 303 306 309 311 314 316 319 321 323 324 325 327 330 332 333 335 336 337 336 335 334 331 329 327 325 323 321 318 316 313 311
280 285 288 289 290 291 291 294 298 302 306 309 312 315 318 321 323 326 328 330 334 338 342 343 343 342 342 342 340 338 336 335 333 331 330 328 325 324 321 319 317 315
284 286 288 288 290 292 295 301 305 310 314 317 319 322 325 329 332 335 339 343 347 348 347 346 344 343 343 341 338 336 335 335 334 332 331 329 328 326 324 322 321 318
285 287 288 290 294 299 304 309 314 319 322 324 328 331 335 339 343 346 349 349 349 347 345 344 343 343 341 339 338 338 337 336 336 335 334 332 331 330 328 326 325 323
285 289 292 297 303 308 314 319 323 326 328 332 337 343 348 350 351 350 349 348 346 345 344 343 343 342 341 341 341 341 340 339 339 338 337 336 335 333 332 330 328 326
287 293 300 307 313 320 324 327 330 332 336 343 351 356 356 352 350 349 348 347 345 344 344 343 343 344 344 344 344 344 344 343 342 341 340 339 338 336 335 333 331 329
294 302 312 320 325 330 333 333 335 341 351 2 2 357 352 349 348 348 346 346 345 345 345 345 345 346 347 347 347 346 346 345 344 343 342 341 340 338 337 336 334 332
303 313 323 331 335 338 337 337 347 3 13 9 357 350 347 347 348 348 347 347 347 347 347 347 348 349 349 349 349 348 347 346 345 345 344 343 342 340 339 337 335 333
312 323 330 337 339 338 338 353 24 23 9 356 348 345 346 348 349 349 349 349 349 349 349 350 351 351 350 350 349 348 348 347 347 346 346 344 343 341 340 337 335 334
314 323 329 333 335 336 22 52 30 8 353 346 345 346 348 350 350 350 351 350 350 351 351 351 352 351 351 351 350 349 349 349 349 348 346 345 343 342 340 338 336 335
206 211 264 273 173 138 84 33 6 350 344 344 346 348 350 352 352 352 352 352 352 352 352 351 351 351 351 351 351 351 351 351 350 349 347 346 344 342 341 339 338 337
182 196 187 168 151 120 38 4 347 340 342 345 348 351 353 353 353 352 353 353 353 352 351 351 350 350 350 351 352 353 353 352 352 350 349 348 346 345 343 342 341 340
187 181 164 153 132 56 3 345 337 339 344 349 352 355 355 353 352 353 354 353 352 351 350 350 350 350 350 351 352 354 354 354 353 352 351 350 349 349 348 346 345 344
174 164 153 140 82 0 341 334 337 344 350 354 356 357 355 353 353 355 355 353 352 351 351 351 351 351 351 352 354 355 355 355 355 354 354 353 354 353 352 351 349 347
160 153 148 129 349 331 329 334 344 352 356 358 358 357 355 355 355 356 355 353 352 352 352 352 351 352 353 354 356 357 357 357 357 356 356 356 357 357 356 354 352 351
154 151 153 213 319 322 334 347 355 359 360 359 359 357 357 357 357 357 355 354 354 354 354 353 353 354 356 357 358 358 358 358 358 358 359 359 359 359 357 356 356 355
Height
3167 3167 3167 3167 3167 3167 3166 3166 3165 3164 3163 3162 3161 3161 3160 3159 3158 3158 3157 3156 3155 3154 3153 3152 3150 3149 3148 3146 3145 3144 3142 3141 3139 3138 3136 3135 3134 3133 3131 3130 3129 3127
3164 3165 3165 3165 3165 3165 3164 3164 3163 3162 3161 3160 3159 3158 3158 3157 3157 3156 3155 3154 3153 3151 3150 3149 3148 3146 3145 3143 3142 3140 3139 3137 3136 3134 3133 3131 3130 3129 3127 3126 3125 3123
3161 3162 3162 3163 3163 3163 3162 3162 3161 3161 3160 3159 3158 3157 3156 3155 3154 3153 3152 3151 3150 3149 3148 3146 3145 3143 3142 3140 3138 3137 3135 3134 3132 3131 3129 3128 3126 3125 3123 3122 3121 3119
3158 3159 3159 3160 3160 3160 3160 3160 3159 3159 3158 3157 3156 3155 3154 3154 3152 3151 3150 3149 3148 3146 3145 3143 3142 3140 3138 3137 3135 3133 3132 3130 3129 3127 3125 3124 3122 3121 3119 3118 3116 3115
3156 3156 3156 3157 3157 3158 3158 3157 3157 3156 3155 3155 3154 3154 3153 3151 3150 3149 3148 3146 3145 3143 3142 3140 3139 3137 3135 3133 3132 3130 3128 3127 3125 3123 3121 3120 3118 3117 3115 3114 3112 3110
3153 3154 3154 3154 3155 3155 3155 3155 3154 3154 3153 3153 3152 3151 3150 3149 3148 3146 3145 3144 3142 3140 3139 3137 3135 3134 3132 3130 3128 3127 3125 3123 3122 3120 3118 3116 3114 3113 3111 3109 3107 3106
3151 3151 3152 3152 3152 3152 3152 3152 3151 3151 3150 3150 3149 3148 3147 3146 3145 3143 3142 3140 3139 3137 3136 3134 3132 3131 3129 3127 3125 3123 3122 3120 3118 3116 3115 3113 3111 3109 3107 3105 3103 3101
3149 3149 3150 3150 3150 3150 3149 3149 3149 3148 3148 3147 3146 3145 3144 3143 3142 3140 3139 3137 3136 3134 3133 3131 3129 3128 3126 3124 3122 3120 3118 3116 3115 3113 3111 3109 3107 3105 3104 3101 3099 3097
3148 3148 3148 3148 3148 3148 3147 3147 3146 3146 3145 3144 3143 3142 3141 3140 3138 3137 3136 3134 3133 3131 3130 3128 3126 3125 3123 3121 3120 3118 3116 3113 3111 3109 3107 3106 3104 3102 3100 3098 3095 3093
3146 3146 3146 3146 3146 3146 3145 3145 3144 3144 3143 3142 3140 3139 3138 3137 3136 3134 3133 3131 3130 3129 3127 3125 3124 3122 3120 3119 3117 3115 3113 3111 3109 3107 3105 3102 3100 3098 3096 3094 3091 3089
3145 3145 3145 3145 3144 3144 3143 3143 3142 3141 3140 3139 3138 3137 3136 3134 3133 3132 3130 3129 3128 3126 3125 3123 3121 3120 3118 3117 3115 3113 3111 3109 3107 3105 3102 3100 3097 3095 3092 3090 3087 3085
3143 3143 3143 3143 3142 3142 3141 3141 3140 3139 3138 3137 3136 3135 3134 3132 3131 3130 3128 3127 3126 3125 3123 3122 3120 3118 3117 3115 3113 3111 3109 3107 3104 3102 3099 3097 3094 3091 3089 3086 3083 3080
3142 3142 3141 3141 3141 3140 3140 3139 3138 3137 3136 3135 3134 3133 3132 3130 3129 3128 3127 3126 3125 3123 3122 3121 3119 3117 3115 3113 3111 3109 3107 3104 3102 3099 3097 3094 3091 3088 3085 3082 3079 3076
3140 3140 3140 3139 3139 3138 3138 3137 3136 3136 3135 3134 3133 3131 3130 3129 3128 3127 3126 3125 3124 3122 3121 3119 3117 3116 3114 3111 3109 3106 3104 3102 3099 3097 3094 3091 3088 3085 3082 3079 3076 3073
3138 3138 3138 3137 3137 3136 3136 3135 3135 3134 3134 3133 3131 3130 3130 3129 3128 3127 3125 3124 3123 3121 3120 3118 3116 3114 3112 3109 3107 3104 3101 3099 3096 3093 3090 3088 3085 3082 3079 3076 3072 3070
3137 3136 3136 3136 3135 3135 3135 3134 3134 3133 3132 3132 3131 3130 3129 3128 3127 3126 3125 3123 3122 3120 3118 3116 3114 3112 3109 3107 3104 3102 3099 3096 3093 3090 3087 3084 3081 3078 3075 3072 3069 3066
3135 3135 3135 3134 3134 3134 3134 3133 3133 3132 3132 3131 3130 3130 3129 3128 3127 3125 3124 3123 3121 3119 3117 3115 3113 3110 3108 3105 3102 3099 3096 3093 3090 3087 3084 3081 3078 3075 3072 3069 3065 3062
3134 3133 3133 3133 3133 3133 3133 3133 3132 3132 3131 3131 3130 3129 3128 3127 3126 3125 3123 3122 3120 3118 3116 3114 3111 3108 3106 3103 3100 3097 3094 3091 3088 3085 3082 3078 3075 3071 3067 3064 3061 3057
3132 3132 3133 3133 3133 3133 3132 3132 3132 3131 3131 3130 3130 3129 3128 3126 3125 3124 3122 3120 3118 3116 3114 3112 3109 3107 3104 3101 3099 3096 3093 3089 3086 3082 3078 3075 3071 3067 3063 3060 3056 3053
3131 3132 3132 3132 3132 3132 3132 3132 3131 3131 3130 3130 3129 3128 3127 3125 3124 3122 3121 3119 3117 3115 3113 3110 3108 3106 3103 3100 3097 3094 3091 3087 3084 3080 3076 3072 3068 3064 3060 3056 3052 3048
3131 3132 3132 3132 3132 3132 3132 3131 3131 3130 3130 3129 3128 3127 3126 3124 3123 3121 3119 3117 3115 3113 3111 3109 3107 3105 3102 3099 3096 3093 3089 3086 3082 3078 3074 3070 3066 3062 3057 3053 3049 3045
3131 3131 3131 3131 3131 3131 3131 3131 3130 3130 3129 3128 3127 3126 3125 3123 3121 3120 3118 3116 3114 3112 3110 3108 3106 3103 3101 3098 3095 3091 3088 3084 3080 3076 3072 3068 3064 3060 3056 3051 3047 3043
3130 3131 3131 3131 3131 3131 3130 3130 3130 3129 3128 3127 3126 3125 3123 3122 3120 3119 3117 3115 3113 3111 3109 3107 3104 3102 3099 3096 3093 3090 3086 3083 3079 3075 3071 3067 3063 3059 3055 3051 3046 3042
3130 3130 3130 3130 3130 3130 3130 3130 3129 3128 3127 3126 3125 3124 3122 3121 3119 3118 3116 3114 3112 3110 3108 3105 3103 3100 3097 3094 3091 3088 3084 3081 3077 3073 3069 3065 3062 3058 3054 3050 3046 3042
3129 3129 3130 3130 3130 3130 3130 3129 3128 3127 3126 3125 3124 3123 3121 3120 3118 3117 3115 3113 3111 3109 3106 3104 3101 3099 3096 3092 3089 3086 3082 3079 3075 3071 3067 3063 3060 3056 3052 3049 3045 3041
3129 3129 3129 3129 3129 3129 3129 3128 3127 3126 3125 3124 3123 3122 3120 3119 3117 3116 3114 3112 3110 3108 3106 3103 3100 3097 3094 3091 3087 3084 3080 3077 3073 3069 3065 3061 3057 3054 3050 3047 3043 3039